Retour au catalogue

OPS 0203

DMSP 5A F2

ActifMétéoSSO
NORAD 4512·PAYLOAD·🇺🇸 United States

Lancé Sep 3, 1970 depuis Vandenberg Space Force Base

Loading…

Prochains Passages (prochaines 24 heures)

TLE

FraisSource: Space-Track

Époque: Sep 14, 2026, 08:03 UTC

1 04512U 70070A   26257.33602690  .00000140  00000-0  62277-4 0  9990
2 04512  98.8877 208.6683 0062559 182.6081 177.4787 14.36574792924427

Suivez OPS 0203 en temps réel avec AllMySat

Download on the App Store